Zurück zum Katalog

STARLINK-37853

AktivKommunikationSSO
NORAD 69498·PAYLOAD·🇺🇸 United States

Gestartet Jun 11, 2026 von Vandenberg Space Force Base

Loading…

Nächste Überflüge (nächste 24 Stunden)

TLE

AktuellSource: CelesTrak SupGP

Epoche: Sep 15, 2026, 04:18 UTC

1 69498C 26131W   26258.17965278 -.00053336  00000+0 -16557-2 0  2582
2 69498  97.2841 282.0745 0001548  99.7077 343.7838 15.33465648    16

Verfolge STARLINK-37853 in Echtzeit mit AllMySat

Download on the App Store